User: anonymous   Login
Location: Casa Rossa
(45.2389°N, 12.2056°E)
Time: 08:36:32
(UTC+00:00)
Language:

Cosmos 1842 - Orbit

View from above orbital plane
View from above orbital plane
View from above satellite
View from above satellite

Ground track
Ground track

The orbit data is extracted from the following two-line orbital elements,

1 17911U 87038A   20266.01431862 -.00000096  00000-0 -73946-5 0  9997
2 17911  82.5202 106.0880 0012684  94.6740 265.5940 15.12305412822034
Epoch (UTC): 22 September 2020 00:20:37
Eccentricity: 0.0012684
inclination: 82.5202°
perigee height: 520 km
apogee height: 538 km
right ascension of ascending node: 106.0880°
argument of perigee: 94.6740°
revolutions per day: 15.12305412
mean anomaly at epoch: 265.5940°
orbit number at epoch: 82203

The dashed part of the orbit path shows where the satellite is in the earth's shadow,  

DLR